Content
SEND FEEDBACK

Daily
Averages
Monthly
Summary
Canada

MONTREAL, QUEBEC


Home > North America > Canada > Quebec
Elevation: 35 meters     Latitude: 45 28N     Longitude: 073 45W

WEATHER
 
SELECT A DAY
Number of Records: 203,669;   Date Range: 1/1/95 - 12/26/14
 
SHARE

PRINT THIS DATA

[ ← Previous Day ]
WEATHER ALMANAC - 26 MARCH, 2013
[ Next Day → ]
[ °F ]   °C
Weather ElementAverageHighLow
Temperature3 °C6 °C (2:00 pm)-2 °C (7:00 am)
Dewpoint-4.3 °C-2 °C (10:28 pm)-6 °C (6:00 am)
Humidity58.3 %75 % (5:00 am)37 % (2:00 pm)
Barometer1008.5 hPa1009.5 hPa (11:00 am)1006.8 hPa (1:00 am)
Wind Speed14.8 km/h25.9 km/h (3:29 pm)
Wind Gust31.5 km/h (3:03 pm)
Weather ElementAverage
Visibility29.6 km
Wind DirectionSSW (201.3 °)

Weather ElementTotal
Precipitation---
Heating Degree Days16.3 (Base 18.3)
Averaged from 31 records on 26 March, 2013
WEATHER CONDITIONS BREAKOUT
WIND DIRECTION BREAKOUT
WEATHER BY HOUR - 26 MARCH, 2013
[ °F ]   °C
Local TimeTemperatureDewpointHumidityBarometerVisibilityWind DirectionWind SpeedGust SpeedPrecipitationEventsConditions
1:00 AM1 °C-5 °C65 %1006.8 hPa24.1 kmNorth (10°)22.2 km/hScattered Clouds
2:00 AM1.1 °C-4.4 °C55 %1006.8 hPa24.1 kmNNE (20°)20.4 km/hMostly Cloudy
2:00 AM1 °C-5 °C65 %1006.8 hPa24.1 kmNNE (20°)20.4 km/hMostly Cloudy
3:00 AM1 °C-5 °C65 %1006.8 hPa24.1 kmNNE (20°)16.7 km/hMostly Cloudy
4:00 AM0 °C-5 °C69 %1007.1 hPa24.1 kmNorth (360°)11.1 km/hScattered Clouds
5:00 AM-1 °C-5 °C75 %1007.5 hPa24.1 kmNorth (360°)11.1 km/hPartly Cloudy
6:00 AM-1 °C-6 °C69 %1007.8 hPa24.1 kmNorth (360°)13 km/hMostly Cloudy
7:00 AM-2 °C-6 °C74 %1007.8 hPa24.1 kmNNW (340°)9.3 km/hPartly Cloudy
8:00 AM-1 °C-6 °C69 %1008.5 hPa24.1 kmNW (320°)7.4 km/hPartly Cloudy
8:00 AM-0.6 °C-5.6 °C58 %1008.5 hPa24.1 kmNW (310°)7.4 km/hScattered Clouds
9:00 AM1 °C-5 °C65 %1008.8 hPa24.1 kmNNE (20°)13 km/hPartly Cloudy
10:00 AM3 °C-5 °C56 %1009.1 hPa24.1 kmNorth (10°)9.3 km/hPartly Cloudy
11:00 AM3 °C-4 °C60 %1009.5 hPa24.1 kmNE (40°)16.7 km/hScattered Clouds
12:00 PM4 °C-5 °C52 %1009.1 hPa24.1 kmNNW (340°)11.1 km/hPartly Cloudy
1:00 PM5 °C-4 °C53 %1008.8 hPa24.1 kmSW (220°)13 km/hScattered Clouds
2:00 PM6 °C-4 °C49 %1008.8 hPa24.1 kmSW (220°)13 km/hMostly Cloudy
2:00 PM5.6 °C-3.9 °C37 %1008.8 hPa24.1 kmSW (220°)13 km/hMostly Cloudy
3:00 PM6 °C-4 °C49 %1008.5 hPa48.3 kmSW (220°)24.1 km/hPartly Cloudy
3:03 PM6 °C-3 °C53 %1008.5 hPa48.3 kmSW (220°)22.2 km/h31.5 km/hPartly Cloudy
3:29 PM6 °C-4 °C49 %1008.5 hPa48.3 kmSW (220°)25.9 km/hPartly Cloudy
4:00 PM6 °C-4 °C49 %1008.5 hPa48.3 kmSW (220°)22.2 km/hMostly Cloudy
5:00 PM6 °C-4 °C49 %1008.5 hPa48.3 kmSSW (210°)18.5 km/hMostly Cloudy
6:00 PM6 °C-5 °C46 %1008.5 hPa48.3 kmSW (220°)16.7 km/hMostly Cloudy
7:00 PM5 °C-4 °C53 %1008.5 hPa48.3 kmWSW (240°)16.7 km/hMostly Cloudy
8:00 PM3.3 °C-3.3 °C50 %1008.8 hPa24.1 kmSW (230°)13 km/hScattered Clouds
8:00 PM4 °C-3 °C61 %1008.5 hPa24.1 kmSW (230°)13 km/hPartly Cloudy
9:00 PM4 °C-4 °C56 %1008.8 hPa24.1 kmWest (260°)11.1 km/hMostly Cloudy
9:15 PM4 °C-3 °C61 %1009.1 hPa24.1 kmWest (260°)13 km/hMostly Cloudy
10:00 PM4 °C-4 °C56 %1009.1 hPa24.1 kmWSW (250°)11.1 km/hMostly Cloudy
10:28 PM3 °C-2 °C70 %1009.5 hPa24.1 kmEast (90°)11.1 km/hRainLight Rain Showers
11:00 PM3 °C-2 °C70 %1009.1 hPa24.1 kmSouth (180°)9.3 km/hOvercast
Hourly data recorded from CYUL, located 0 kilometers away from Montreal, Quebec







STORIES FROM OUR PARTNERS